This is the latest recevied weather packets stored in our database for station/object KC8PTQ. If no packets are shown the sender has not sent any weather packets the latest 10 day(s).
| Time | Temp. | Humidity | Pressure | Rain* | Wind** | Luminosity | Snow |
|---|---|---|---|---|---|---|---|
| 1778216840 | 7.78° C | 84% | 1014.7 hPa | 0 mm | - | 0 W/m² | - |
| 1778216538 | 8.33° C | 80% | 1014.7 hPa | 0 mm | - | 0 W/m² | - |
| 1778216238 | 7.78° C | 79% | 1014.8 hPa | 0 mm | - | 0 W/m² | - |
| 1778215936 | 7.78° C | 77% | 1014.7 hPa | 0 mm | - | 0 W/m² | - |
| 1778215633 | 8.33° C | 78% | 1014.6 hPa | 0 mm | - | 0 W/m² | - |
| 1778215330 | 8.33° C | 79% | 1014.4 hPa | 0 mm | - | 0 W/m² | - |
| 1778215026 | 7.78° C | 78% | 1014.5 hPa | 0 mm | - | 0 W/m² | - |
| 1778214724 | 8.33° C | 79% | 1014.4 hPa | 0 mm | - | 0 W/m² | - |
| 1778214420 | 8.33° C | 79% | 1014.5 hPa | 0 mm | - | 0 W/m² | - |
| 1778214117 | 7.78° C | 74% | 1014.3 hPa | 0 mm | - | 0 W/m² | - |
| 1778213814 | 7.78° C | 75% | 1014.3 hPa | 0 mm | - | 0 W/m² | - |
| 1778213511 | 8.33° C | 80% | 1014.4 hPa | 0 mm | - | 0 W/m² | - |
| 1778213208 | 8.89° C | 78% | 1014.5 hPa | 0 mm | - | 0 W/m² | - |
| 1778212905 | 8.89° C | 75% | 1014.7 hPa | 0 mm | - | 0 W/m² | - |
| 1778212602 | 8.89° C | 71% | 1015 hPa | 0 mm | - | 0 W/m² | - |
| 1778212299 | 8.89° C | 71% | 1014.7 hPa | 0 mm | - | 0 W/m² | - |
| 1778211996 | 8.89° C | 74% | 1014.9 hPa | 0 mm | - | 0 W/m² | - |
| 1778211693 | 8.89° C | 71% | 1014.9 hPa | 0 mm | - | 0 W/m² | - |
| 1778211390 | 8.89° C | 70% | 1014.9 hPa | 0 mm | - | 0 W/m² | - |
| 1778211089 | 9.44° C | 68% | 1014.9 hPa | 0 mm | - | 0 W/m² | - |
| 1778210784 | 8.89° C | 67% | 1014.9 hPa | 0 mm | - | 0 W/m² | - |
| 1778210482 | 9.44° C | 68% | 1014.7 hPa | 0 mm | - | 0 W/m² | - |
| 1778210179 | 9.44° C | 67% | 1014.9 hPa | 0 mm | - | 0 W/m² | - |
| 1778209875 | 9.44° C | 67% | 1014.9 hPa | 0 mm | - | 0 W/m² | - |
| 1778209572 | 9.44° C | 65% | 1015.1 hPa | 0 mm | - | 0 W/m² | - |
* Rain latest hour (hover to see other rain measurements)
** Current wind speed in m/s (hover to see current wind gust speed)